[[{"header":{"parameterUnit":"m.s-1","parameterCategory":1,"la1":30.2991,"la2":30.254,"lo1":-89.0895,"lo2":-89.0444,"dy":0.0017,"dx":0.0017,"nx":28,"ny":28,"refTime":"2025-07-09T03:00:00:Z","depth":0,"parameterNumber":2,"parameterNumberName":"U-component_of_WINDS"},"data":[0,0,0,0,0,0,0,0,0,0,0,0,0,0,0,0,0,0,0,0,0,0,0,0,0,0,0,0,0,0,0,0,0,0,0,0,0,0,0,0,0,0,0,0,0,0,0,0,0,0,0,0,0,0,0,0,0,0,2.7055,2.7056,0,2.7111,2.7112,2.7112,2.7087,2.7085,2.7084,2.7083,2.7144,2.7147,2.715,0,0,0,0,0,0,0,0,0,0,0,0,0,2.6931,2.6934,2.7055,2.7056,2.7056,2.7111,2.7112,2.7112,2.7087,2.7085,2.7084,2.7082,2.7143,2.7147,2.715,0,0,0,0,0,0,0,0,0,0,0,0,0,2.6986,2.6935,2.7055,2.705,2.705,2.7111,2.7112,2.7113,2.7087,2.7085,2.7083,2.7081,2.7142,2.7146,2.7151,2.722,0,0,2.7164,2.7166,0,0,0,0,0,0,0,0,2.6983,2.6991,2.705,2.7051,2.7051,2.709,2.709,2.7149,2.7088,2.7073,2.7083,2.708,2.7128,2.7133,2.7149,2.7223,2.7226,2.7165,2.7167,2.7169,2.717,0,0,0,0,0,0,0,2.6979,2.6988,2.7077,2.7051,2.7052,2.7047,2.7052,2.7101,2.7112,2.7075,2.7073,2.708,2.7128,2.7144,2.715,2.7227,2.7164,2.7168,2.7171,2.7173,2.7362,2.7364,0,0,0,0,0,0,2.6975,2.6985,2.7075,2.7079,2.7011,2.7051,2.7057,2.7079,2.7111,2.7114,2.7081,2.7078,2.7138,2.7145,2.7152,2.7236,2.7169,2.7173,2.7176,2.736,2.7363,2.7365,0,0,0,0,0,0,2.6972,2.6983,2.7073,2.7032,2.7043,2.7055,2.7081,2.7082,2.7098,2.7116,2.7119,2.7096,2.7137,2.7146,2.7203,2.7238,2.7175,2.7179,2.7357,2.7361,2.7364,2.7404,0,0,0,0,0,0,2.6969,2.6982,2.7008,2.7032,2.7045,2.7122,2.7083,2.7084,2.7105,2.7102,2.7131,2.7134,2.7136,2.7197,2.7208,2.7243,2.7183,2.7354,2.7359,2.7363,2.74,2.7409,2.7416,0,0,0,0,0,2.6965,2.7017,2.7009,2.702,2.7077,2.7124,2.7132,2.7131,2.7108,2.7134,2.7146,2.7133,2.7232,2.7203,2.7215,2.7252,2.7352,2.7357,2.7363,2.7396,2.7407,2.7416,0,0,0,0,0,0,2.6998,2.702,2.7011,2.7073,2.7097,2.712,2.7153,2.7143,2.7174,2.717,2.717,2.7177,2.7236,2.725,2.7217,2.7321,2.7289,2.7297,2.731,2.732,2.7328,2.7324,2.7186,0,0,0,0,0,2.7012,2.7047,2.7066,2.7119,2.7131,2.714,2.7161,2.7159,2.7184,2.7194,2.721,2.7236,2.7273,2.7298,2.7333,2.7402,2.7408,2.7433,2.7441,2.7448,2.7455,2.7493,2.7505,2.7383,2.7383,2.7383,0,0,2.7042,2.7059,2.7082,2.7126,2.7144,2.7182,2.7149,2.719,2.7219,2.7201,2.7255,2.7269,2.7298,2.7361,2.739,2.7375,2.749,2.7455,2.746,2.7463,2.75,2.7512,2.7522,2.7387,2.7386,2.7385,0,0,2.7117,2.7133,2.7179,2.7197,2.7225,2.723,2.7242,2.7266,2.7274,2.7329,2.7316,2.7351,2.7415,2.7437,2.7456,2.754,2.7529,2.7552,2.7595,2.7632,2.7642,2.765,2.7681,2.7691,2.7559,2.7559,2.7559,0,2.7151,2.7206,2.7204,2.7247,2.7267,2.7252,2.73,2.7318,2.7356,2.7372,2.7353,2.7433,2.7452,2.7521,2.7541,2.7558,2.7571,2.7548,2.764,2.7649,2.7657,2.7686,2.7697,2.7561,2.7561,2.7561,2.7561,0,2.7248,2.7287,2.7321,2.7357,2.7382,2.7427,2.7433,2.7458,2.7455,2.7463,2.752,2.7542,2.7582,2.7598,2.7595,2.7667,2.7656,2.7639,2.7606,2.7671,2.7698,2.7709,2.7565,2.7564,2.7563,2.7563,0,0,2.7344,2.7378,2.7391,2.7407,2.7437,2.7468,2.7513,2.7551,2.7573,2.76,2.7639,2.7694,2.7678,2.77,2.77,2.7733,2.7799,2.7712,2.7712,2.7727,2.788,2.7893,2.7905,2.7792,2.7794,2.7796,2.7878,0,2.742,2.7497,2.7498,2.757,2.7606,2.7593,2.7633,2.7656,2.7666,2.7699,2.771,2.7749,2.7725,2.7739,2.7771,2.7784,2.783,2.7778,2.7829,2.7831,2.7821,2.792,2.7933,2.8009,2.7888,2.789,2.7891,0,2.752,2.7549,2.7624,2.7649,2.7665,2.77,2.7735,2.7767,2.7794,2.7799,2.7824,2.7819,2.7867,2.7833,2.79,2.7865,2.7886,2.7896,2.7899,2.7903,2.7865,2.7927,2.8033,2.8045,2.7908,2.7907,2.7906,0,2.7582,2.7641,2.7694,2.7708,2.7739,2.7764,2.7778,2.7803,2.7826,2.7858,2.7873,2.791,2.793,2.796,2.7965,2.794,2.8033,2.7999,2.8039,2.8039,2.8058,2.8057,2.8169,2.8073,2.8072,2.8072,2.8072,0,2.7667,2.7714,2.7722,2.7755,2.7807,2.7808,2.7861,2.7873,2.7896,2.7931,2.7923,2.7957,2.7963,2.7999,2.8004,2.8059,2.8068,2.8074,2.8075,2.8075,2.8074,2.8088,2.8083,2.8075,2.8075,2.8074,2.8073,0,2.7746,2.7753,2.781,2.7834,2.7841,2.7879,2.7901,2.7933,2.7941,2.7987,2.7998,2.8012,2.8054,2.8063,2.8113,2.8117,2.8182,2.8178,2.8172,2.8172,2.8211,2.8207,2.8336,2.8353,2.8246,2.8247,2.8247,0,2.7799,2.7835,2.7863,2.7886,2.7901,2.7938,2.7961,2.7964,2.7989,2.8023,2.8051,2.8092,2.8125,2.8193,2.8209,2.8247,2.8244,2.8287,2.825,2.8248,2.8244,2.8242,2.8246,2.8294,2.8295,2.8296,2.8296,0,2.7894,2.7896,2.7929,2.7964,2.7992,2.802,2.8046,2.8066,2.8073,2.8101,2.8143,2.8169,2.822,2.8261,2.8299,2.8316,2.8308,2.8308,2.8319,2.8319,2.8314,2.8317,2.8191,2.8305,2.8304,2.8303,2.8303,2.8303,2.7962,2.7993,2.8018,2.8055,2.8075,2.8101,2.8132,2.8144,2.8179,2.822,2.822,2.8267,2.8294,2.8345,2.8364,2.8401,2.8388,2.8404,2.8408,2.8412,2.8416,2.8309,2.8409,2.8408,2.8408,2.8408,2.8408,0,2.8056,2.8071,2.8106,2.8143,2.8173,2.8162,2.8191,2.8217,2.8257,2.8283,2.8315,2.8365,2.8405,2.8424,2.8464,2.849,2.8487,2.85,2.8498,2.8502,2.8425,2.8411,2.8502,2.8502,2.8502,2.8502,2.8502,2.8502,2.8108,2.816,2.8166,2.8229,2.8244,2.8288,2.8306,2.833,2.835,2.8405,2.8438,2.845,2.8474,2.8515,2.8552,2.8557,2.8572,2.8587,2.859,2.8517,2.8508,2.8498,2.8485,2.859,2.859,2.8663,2.8664,2.8664]},{"header":{"parameterUnit":"m.s-1","parameterCategory":1,"la1":30.2991,"la2":30.254,"lo1":-89.0895,"lo2":-89.0444,"dy":0.0017,"dx":0.0017,"nx":28,"ny":28,"refTime":"2025-07-09T03:00:00:Z","depth":0,"parameterNumber":3,"parameterNumberName":"V-component_of_WINDS"},"data":[0,0,0,0,0,0,0,0,0,0,0,0,0,0,0,0,0,0,0,0,0,0,0,0,0,0,0,0,0,0,0,0,0,0,0,0,0,0,0,0,0,0,0,0,0,0,0,0,0,0,0,0,0,0,0,0,0,0,3.5127,3.5129,0,3.528,3.5282,3.5284,3.5306,3.5305,3.5304,3.5302,3.5455,3.546,3.5465,0,0,0,0,0,0,0,0,0,0,0,0,0,3.4847,3.4852,3.5127,3.5129,3.5131,3.528,3.5282,3.5284,3.5307,3.5305,3.5303,3.5302,3.5453,3.5459,3.5466,0,0,0,0,0,0,0,0,0,0,0,0,0,3.4981,3.4854,3.5127,3.516,3.5165,3.528,3.5282,3.5285,3.5307,3.5305,3.5303,3.5301,3.5451,3.5459,3.5467,3.5558,0,0,3.5491,3.5495,0,0,0,0,0,0,0,0,3.4973,3.4991,3.5154,3.5158,3.5164,3.5272,3.5239,3.5376,3.5308,3.5253,3.5302,3.53,3.5395,3.5408,3.5441,3.5565,3.5571,3.5492,3.5497,3.55,3.5502,0,0,0,0,0,0,0,3.4964,3.4985,3.5188,3.5156,3.5162,3.5165,3.5182,3.5265,3.5334,3.5258,3.526,3.5278,3.5398,3.5433,3.5445,3.5573,3.5492,3.5499,3.5504,3.5507,3.5772,3.5774,0,0,0,0,0,0,3.495,3.4977,3.5183,3.5192,3.5062,3.5172,3.5191,3.5239,3.5333,3.5345,3.5279,3.5278,3.5421,3.5435,3.545,3.5559,3.55,3.5508,3.5512,3.577,3.5773,3.5775,0,0,0,0,0,0,3.4943,3.4968,3.5177,3.5085,3.5112,3.5179,3.5233,3.5243,3.5279,3.5349,3.5361,3.5303,3.542,3.5439,3.5529,3.5564,3.5511,3.5519,3.5767,3.5771,3.5774,3.5778,0,0,0,0,0,0,3.4935,3.4966,3.5003,3.5086,3.5117,3.5256,3.5236,3.5248,3.5293,3.5293,3.5375,3.5387,3.5419,3.5517,3.5537,3.5574,3.5525,3.5765,3.5769,3.5773,3.5775,3.5782,3.5787,0,0,0,0,0,3.4925,3.4999,3.5005,3.503,3.5165,3.5258,3.5276,3.5313,3.5296,3.5332,3.5377,3.5384,3.5557,3.5527,3.5549,3.5589,3.5763,3.5768,3.5773,3.5773,3.578,3.5787,0,0,0,0,0,0,3.4918,3.501,3.5018,3.5121,3.5181,3.5262,3.5309,3.532,3.5386,3.5383,3.5425,3.5443,3.5531,3.5569,3.5533,3.5679,3.5658,3.5668,3.565,3.5658,3.5664,3.5652,3.5531,0,0,0,0,0,3.4928,3.4998,3.5074,3.5157,3.5187,3.5243,3.5284,3.5308,3.5371,3.5397,3.5448,3.5508,3.5575,3.5619,3.5686,3.5781,3.5796,3.5819,3.5825,3.5829,3.5836,3.5884,3.5894,3.5792,3.5792,3.5792,0,0,3.495,3.5009,3.5051,3.5157,3.5207,3.5274,3.5264,3.5338,3.5387,3.5408,3.5496,3.5535,3.5604,3.5696,3.5739,3.5731,3.5868,3.5835,3.5838,3.5844,3.589,3.59,3.5908,3.5795,3.5795,3.5794,0,0,3.5025,3.5078,3.5151,3.52,3.5275,3.5311,3.5328,3.5406,3.5432,3.5521,3.5536,3.5594,3.5711,3.5758,3.5798,3.5884,3.5891,3.5904,3.5933,3.5979,3.5987,3.5994,3.6021,3.6031,3.5911,3.5912,3.5912,0,3.5042,3.5148,3.5186,3.5258,3.5302,3.5323,3.5395,3.544,3.5532,3.5561,3.555,3.5693,3.5742,3.5843,3.5863,3.5896,3.5913,3.5895,3.5983,3.5991,3.5998,3.6024,3.6034,3.5912,3.5912,3.5912,3.5912,0,3.5163,3.5235,3.5284,3.5372,3.5422,3.5493,3.554,3.5585,3.5602,3.5638,3.5725,3.5783,3.5859,3.5885,3.5903,3.5987,3.5978,3.5975,3.5955,3.6008,3.6033,3.6043,3.5914,3.5913,3.5913,3.5913,0,0,3.5239,3.5345,3.5362,3.54,3.5482,3.5537,3.5606,3.5681,3.5717,3.5778,3.5835,3.5931,3.5927,3.5971,3.5994,3.6035,3.6094,3.6026,3.6028,3.6034,3.6183,3.6184,3.6195,3.6099,3.6101,3.6103,3.6176,0,3.532,3.5448,3.5482,3.5589,3.5653,3.5671,3.5731,3.5786,3.582,3.5877,3.5913,3.5979,3.5971,3.5997,3.6038,3.6078,3.6124,3.6073,3.6149,3.6151,3.6129,3.6209,3.6211,3.6278,3.6187,3.6189,3.619,0,3.5433,3.5496,3.5609,3.5677,3.5706,3.576,3.5828,3.5883,3.5943,3.5965,3.6012,3.603,3.6099,3.6075,3.6169,3.6133,3.6166,3.619,3.6193,3.62,3.6173,3.6215,3.63,3.6309,3.6206,3.6205,3.6204,0,3.5473,3.5586,3.5666,3.5698,3.5782,3.5818,3.5854,3.5913,3.5954,3.6012,3.6038,3.6104,3.614,3.6189,3.6222,3.6203,3.6311,3.6292,3.6328,3.6326,3.6349,3.6347,3.6438,3.6374,3.6374,3.6373,3.6373,0,3.5559,3.5626,3.5684,3.5734,3.5808,3.5845,3.5916,3.5953,3.6004,3.6057,3.6077,3.6127,3.617,3.6224,3.625,3.6321,3.6338,3.6354,3.636,3.6351,3.6349,3.6372,3.6367,3.6376,3.6375,3.6375,3.6374,0,3.5616,3.5658,3.5746,3.5817,3.5836,3.5887,3.5946,3.5992,3.6025,3.6093,3.6111,3.6162,3.6226,3.6265,3.6347,3.6364,3.6441,3.6446,3.6421,3.6423,3.6455,3.6451,3.6563,3.6578,3.6506,3.6506,3.6507,0,3.5667,3.5719,3.5794,3.5832,3.5868,3.5929,3.597,3.6007,3.6049,3.6118,3.6155,3.6221,3.6275,3.6376,3.6419,3.648,3.6485,3.652,3.6495,3.6482,3.6482,3.6477,3.6481,3.6524,3.6525,3.6525,3.6526,0,3.5752,3.5769,3.5829,3.5894,3.5943,3.5996,3.6049,3.6078,3.6123,3.6168,3.6234,3.6276,3.6358,3.6421,3.6485,3.6518,3.6528,3.6533,3.6544,3.6535,3.6517,3.6523,3.643,3.653,3.653,3.653,3.6529,3.6529,3.5805,3.585,3.5909,3.5973,3.6016,3.6064,3.611,3.6148,3.6204,3.6274,3.6292,3.636,3.6413,3.65,3.6534,3.6586,3.658,3.6597,3.6601,3.6604,3.6603,3.651,3.6598,3.6598,3.6598,3.6598,3.6598,0,3.5888,3.5926,3.5985,3.6057,3.6106,3.6112,3.6169,3.6209,3.6269,3.6319,3.6371,3.6444,3.6505,3.6551,3.6611,3.6643,3.6649,3.6657,3.6654,3.6661,3.6606,3.6589,3.6652,3.6652,3.6652,3.6652,3.6652,3.6652,3.5937,3.6012,3.6036,3.613,3.6167,3.6235,3.6266,3.6308,3.6348,3.6429,3.6479,3.6509,3.6556,3.6619,3.6673,3.6685,3.6705,3.6712,3.6724,3.6672,3.6666,3.666,3.6644,3.6717,3.6717,3.6774,3.6775,3.6775]}]]